Regional Weather Roundup
Issued by NWS Kansas City/Pleasant Hill, MO

Home | Current Version | Previous Version | Graphics & Text | Print | Product List | Glossary Off
Versions: 1 2 3 4 5 6 7 8 9 10 11 12 13 14 15 16 17 18 19 20 21 22 23 24 25 26 27 28 29 30 31 32 33 34 35 36 37 38 39 40 41 42 43 44 45 46 47 48 49 50

000
ASUS43 KEAX 210704
RWREAX

WEATHER ROUNDUP FOR EASTERN KANSAS AND NORTHWEST MISSOURI
NATIONAL WEATHER SERVICE KANSAS CITY/PLEASANT HILL MO
200 AM CDT THU AUG 21 2014

KSZ040-057-103>105-MOZ028-029-037-043-210800-
...KANSAS CITY METROPOLITAN AREA...

CITY           SKY/WX    TMP DP  RH WIND       PRES   REMARKS
K.C. INTL      PTCLDY    80  68  66 S14       29.89F
K.C. DOWNTOWN  PTCLDY    82  67  60 SW17G25   29.89S
LEES SUMMIT    CLEAR     78  66  66 S10       29.92S
OLATHE - IXD   CLEAR     78  67  68 S15       29.91S
OLATHE - OJC   CLEAR     77  67  71 S12       29.91S
LAWRENCE       PTCLDY    83  68  60 S14       29.88F

$$

MOZ001>008-011>017-020>025-030>033-038>040-044>046-053-054-210800-
...NORTHERN AND CENTRAL MISSOURI...

CITY           SKY/WX    TMP DP  RH WIND       PRES   REMARKS
ST. JOSEPH     PTCLDY    79  69  71 S12       29.86F
MOSBY          SUNNY     79  66  65 CALM      29.90S
WHITEMAN AFB   CLEAR     75  62  64 S13       29.93S
CLINTON        CLEAR     77  66  69 S7        29.95S
SEDALIA        CLEAR     79  65  62 S10       29.95F
WARSAW         NOT AVBL
MARSHALL       CLEAR     77  70  78 S6        29.94S
CHILLICOTHE      N/A     79  69  71 S5        29.91S
MOBERLY        CLEAR     77  68  73 S7        29.95S
KIRKSVILLE     CLEAR     76  70  82 S8        29.93S

$$

MOZ041-047>049-056>058-063>065-088>090-097-210800-
...EASTERN AND SOUTHERN MISSOURI...

CITY           SKY/WX    TMP DP  RH WIND       PRES   REMARKS
ST. LOUIS INTL MOCLDY    78  74  87 S7        29.97F
SPIRIT OF STL  CLEAR     72  70  93 CALM      29.95S
COLUMBIA       CLEAR     73  70  90 SE7       29.96F
JEFFERSON CITY CLEAR     71  69  93 SE6       29.95F
MEXICO         CLEAR    N/A N/A N/A S6        29.95F
ROLLA          CLEAR     73  64  73 S9        29.99R
LEBANON        CLEAR     75  64  69 S8        30.01S
OSAGE BEACH    CLEAR     75  64  69 S3        29.98S
SPRINGFIELD    CLEAR     76  67  73 S12       29.99F
BRANSON        CLEAR     75  68  78 CALM      30.02F
NEVADA         CLEAR     72  64  78 S8        29.96S
JOPLIN         CLEAR     78  68  71 S13       29.97S
WEST PLAINS    PTCLDY    75  66  73 SW5       30.04F

$$

IAZ060-094-KSZ022-034>040-054-083-096-NEZ052-066-093-210800-
...KANSAS...SOUTHEAST NEBRASKA AND IOWA...

CITY           SKY/WX    TMP DP  RH WIND       PRES   REMARKS
TOPEKA         PTCLDY    83  70  64 S14G21    29.86F
MANHATTAN      CLEAR     83  66  56 S17G26    29.83S
EMPORIA        CLEAR     78  69  73 S16       29.89R
CHANUTE        CLEAR     80  68  66 S15       29.93S
WICHITA        PTCLDY    80  66  62 S16       29.87F
OMAHA          MOCLDY    81  71  71 S14       29.78F
LINCOLN        MOCLDY    82  67  60 S16       29.77S
FALLS CITY     PTCLDY    80  68  66 S13       29.82F
LAMONI         CLEAR     77  71  82 S9        29.88S
DES MOINES     PTCLDY    77  72  84 S7        29.84S

$$



USA.gov is the U.S. government's official web portal to all federal, state and local government web resources and services.